Find STARLINK-37677

NORAD ID: 799501228 Int'l Des: 2026-161Z Constellation: starlink operational

Current View

Loading 3D Globe...

About STARLINK-37677

STARLINK-37677 (NORAD 799501228) is a starlink constellation satellite launched Jul 14, 2026

About STARLINK-37677

Description loading...

Upcoming Passes

Passes for default location (London). Set your location on the main map for personalized predictions.

Altitude History

Loading altitude history...

Two-Line Element Set

1 99999C 2026161Z 26195.67618056 .00665360 00000-0 645290-4 0 1959
2 99999 53.1640 325.3732 0009426 282.0352 0.9037 16.10414728 18
Epoch: Jul 14, 2026 • Age: 7 hours

Current Status

Altitude 255.8 km
Apogee / Perigee N/A
Velocity 7.76 km/s
Sub-Earth Point 49.75°N, 110.72°E
Launch Date Jul 14, 2026
Age N/A
Type internet

Most Searched